• în Republica Moldova
  • Lista ţărilor
  • Pe 7 zile
  • Temperatura apei
  • Hartă satelitară
  • Meteo pe hartă
  • Widget-uri
  • user-avatar
    Intrare

    Meteo pe oră la Bregenz

    Astăzi, 21 Iulie, Vineri

    Timp Temperatura Precipitaţii Vânt Presiune Umiditate
    00:00 +12°C° 0,1 mm 1 m/s 647 mmHg 88%
    01:00 +12°C° 0 mm 1 m/s 647 mmHg 87%
    02:00 +12°C° 0,1 mm 1 m/s 647 mmHg 87%
    03:00 +12°C° 0,1 mm 1 m/s 646 mmHg 87%
    04:00 +11°C° 0,1 mm 1 m/s 646 mmHg 87%
    05:00 +12°C° 0,1 mm 1 m/s 646 mmHg 86%
    06:00 +13°C° 0,1 mm 1 m/s 647 mmHg 84%
    07:00 +14°C° 0,1 mm 1 m/s 647 mmHg 82%
    08:00 +16°C° 0,2 mm 1 m/s 647 mmHg 75%
    09:00 +19°C° 0,2 mm 1 m/s 648 mmHg 68%
    10:00 +21°C° 0,2 mm 1 m/s 648 mmHg 61%
    11:00 +21°C° 0,6 mm 2 m/s 648 mmHg 60%
    12:00 +21°C° 0,6 mm 2 m/s 648 mmHg 58%
    13:00 +23°C° 0,6 mm 2 m/s 648 mmHg 57%
    14:00 +23°C° 1 mm 2 m/s 648 mmHg 60%
    15:00 +22°C° 1 mm 1 m/s 648 mmHg 63%
    16:00 +22°C° 1 mm 1 m/s 647 mmHg 65%
    17:00 +21°C° 1,3 mm 1 m/s 647 mmHg 72%
    18:00 +19°C° 1,3 mm 1 m/s 647 mmHg 79%
    19:00 +18°C° 1,3 mm 1 m/s 646 mmHg 86%
    20:00 +16°C° 0,8 mm 1 m/s 646 mmHg 87%
    21:00 +15°C° 0,8 mm 1 m/s 646 mmHg 88%
    22:00 +14°C° 0,8 mm 1 m/s 646 mmHg 88%
    23:00 +14°C° 0,5 mm 2 m/s 646 mmHg 89%

    Mâine, 22 Iulie, Sâmbătă

    Timp Temperatura Precipitaţii Vânt Presiune Umiditate
    00:00 +13°C° 0,5 mm 2 m/s 646 mmHg 91%
    01:00 +13°C° 0,5 mm 2 m/s 646 mmHg 92%
    02:00 +13°C° 0,1 mm 2 m/s 646 mmHg 92%
    03:00 +12°C° 0,1 mm 2 m/s 646 mmHg 91%
    04:00 +12°C° 0,1 mm 1 m/s 646 mmHg 91%
    05:00 +13°C° 0 mm 1 m/s 646 mmHg 89%
    06:00 +14°C° 0 mm 1 m/s 647 mmHg 86%
    07:00 +15°C° 0 mm 1 m/s 647 mmHg 84%
    08:00 +18°C° 0 mm 1 m/s 648 mmHg 75%
    09:00 +20°C° 0 mm 1 m/s 648 mmHg 65%
    10:00 +22°C° 0 mm 1 m/s 649 mmHg 56%
    11:00 +21°C° 0,2 mm 2 m/s 649 mmHg 56%
    12:00 +21°C° 0,2 mm 2 m/s 649 mmHg 57%
    13:00 +23°C° 0,2 mm 2 m/s 649 mmHg 57%
    14:00 +21°C° 0,8 mm 2 m/s 649 mmHg 61%
    15:00 +21°C° 0,8 mm 2 m/s 649 mmHg 65%
    16:00 +21°C° 0,8 mm 1 m/s 649 mmHg 69%
    17:00 +20°C° 0,8 mm 1 m/s 648 mmHg 74%
    18:00 +19°C° 0,8 mm 1 m/s 648 mmHg 79%
    19:00 +18°C° 0,8 mm 1 m/s 648 mmHg 85%
    20:00 +16°C° 0,8 mm 1 m/s 648 mmHg 86%
    21:00 +15°C° 0,8 mm 1 m/s 648 mmHg 88%
    22:00 +14°C° 0,8 mm 1 m/s 648 mmHg 90%
    23:00 +14°C° 0,5 mm 1 m/s 648 mmHg 90%

    Poimâine, 23 Iulie, Duminică

    Timp Temperatura Precipitaţii Vânt Presiune Umiditate
    00:00 +14°C° 0,5 mm 1 m/s 648 mmHg 90%
    01:00 +14°C° 0,5 mm 1 m/s 647 mmHg 90%
    02:00 +13°C° 0,1 mm 1 m/s 647 mmHg 90%
    03:00 +13°C° 0,1 mm 2 m/s 647 mmHg 90%
    04:00 +12°C° 0,1 mm 2 m/s 647 mmHg 91%
    05:00 +13°C° 0,1 mm 2 m/s 648 mmHg 91%
    06:00 +13°C° 0,1 mm 2 m/s 648 mmHg 90%
    07:00 +14°C° 0,1 mm 2 m/s 648 mmHg 90%
    08:00 +14°C° 0,1 mm 2 m/s 648 mmHg 88%
    09:00 +14°C° 0,1 mm 2 m/s 648 mmHg 86%
    10:00 +15°C° 0,1 mm 2 m/s 648 mmHg 84%
    11:00 +15°C° 0,1 mm 2 m/s 649 mmHg 82%
    12:00 +16°C° 0,1 mm 2 m/s 649 mmHg 79%
    13:00 +16°C° 0,1 mm 2 m/s 649 mmHg 77%
    14:00 +16°C° 0,1 mm 2 m/s 649 mmHg 77%
    15:00 +16°C° 0,1 mm 2 m/s 648 mmHg 77%
    16:00 +16°C° 0,1 mm 2 m/s 648 mmHg 77%
    17:00 +16°C° 0,1 mm 2 m/s 648 mmHg 80%
    18:00 +15°C° 0,1 mm 2 m/s 648 mmHg 83%
    19:00 +15°C° 0,1 mm 1 m/s 648 mmHg 86%
    20:00 +13°C° 0,1 mm 1 m/s 648 mmHg 88%
    21:00 +12°C° 0,1 mm 1 m/s 648 mmHg 90%
    22:00 +11°C° 0,1 mm 1 m/s 647 mmHg 92%
    23:00 +11°C° 0 mm 1 m/s 647 mmHg 93%

    24 Iulie, Luni

    Timp Temperatura Precipitaţii Vânt Presiune Umiditate
    00:00 +10°C° 0 mm 0 m/s 646 mmHg 93%
    01:00 +9°C° 0 mm 0 m/s 646 mmHg 94%
    02:00 +9°C° 0,1 mm 0 m/s 645 mmHg 94%
    03:00 +9°C° 0,1 mm 0 m/s 645 mmHg 94%
    04:00 +9°C° 0,1 mm 0 m/s 644 mmHg 95%
    05:00 +9°C° 0,2 mm 0 m/s 644 mmHg 94%
    06:00 +11°C° 0,2 mm 1 m/s 644 mmHg 93%
    07:00 +11°C° 0,2 mm 1 m/s 643 mmHg 92%
    08:00 +11°C° 1,2 mm 1 m/s 643 mmHg 94%
    09:00 +11°C° 1,2 mm 1 m/s 643 mmHg 95%
    10:00 +10°C° 1,2 mm 2 m/s 643 mmHg 96%
    11:00 +10°C° 1,8 mm 2 m/s 643 mmHg 96%
    12:00 +9°C° 1,8 mm 2 m/s 643 mmHg 96%
    13:00 +9°C° 1,8 mm 2 m/s 643 mmHg 95%
    14:00 +9°C° 0,8 mm 3 m/s 643 mmHg 95%
    15:00 +9°C° 0,8 mm 3 m/s 643 mmHg 94%
    16:00 +8°C° 0,8 mm 4 m/s 643 mmHg 93%
    17:00 +9°C° 0,5 mm 3 m/s 643 mmHg 94%
    18:00 +9°C° 0,5 mm 3 m/s 643 mmHg 94%
    19:00 +8°C° 0,5 mm 3 m/s 643 mmHg 95%
    20:00 +8°C° 0,5 mm 3 m/s 643 mmHg 95%
    21:00 +7°C° 0,5 mm 2 m/s 643 mmHg 96%
    22:00 +7°C° 0,5 mm 2 m/s 643 mmHg 97%
    23:00 +7°C° 0,6 mm 2 m/s 643 mmHg 97%

    25 Iulie, Marţi

    Timp Temperatura Precipitaţii Vânt Presiune Umiditate
    00:00 +7°C° 0,6 mm 2 m/s 643 mmHg 97%
    01:00 +7°C° 0,6 mm 2 m/s 643 mmHg 97%
    02:00 +7°C° 0,7 mm 2 m/s 643 mmHg 97%
    03:00 +7°C° 0,7 mm 2 m/s 643 mmHg 97%
    04:00 +7°C° 0,7 mm 2 m/s 643 mmHg 97%
    05:00 +7°C° 1,5 mm 3 m/s 643 mmHg 97%
    06:00 +7°C° 1,5 mm 3 m/s 643 mmHg 96%
    07:00 +7°C° 1,5 mm 3 m/s 643 mmHg 96%
    08:00 +7°C° 2,1 mm 3 m/s 643 mmHg 95%
    09:00 +8°C° 2,1 mm 3 m/s 643 mmHg 93%
    10:00 +8°C° 2,1 mm 3 m/s 643 mmHg 92%
    11:00 +8°C° 2,1 mm 3 m/s 643 mmHg 92%
    12:00 +8°C° 2,1 mm 3 m/s 643 mmHg 92%
    13:00 +8°C° 2,1 mm 3 m/s 643 mmHg 92%
    14:00 +9°C° 0,7 mm 3 m/s 643 mmHg 91%
    15:00 +9°C° 0,7 mm 3 m/s 643 mmHg 91%
    16:00 +9°C° 0,7 mm 2 m/s 643 mmHg 90%
    17:00 +9°C° 0,5 mm 2 m/s 643 mmHg 91%
    18:00 +9°C° 0,5 mm 2 m/s 644 mmHg 92%
    19:00 +8°C° 0,5 mm 2 m/s 644 mmHg 93%
    20:00 +8°C° 0,3 mm 2 m/s 644 mmHg 94%
    21:00 +7°C° 0,3 mm 2 m/s 644 mmHg 95%
    22:00 +7°C° 0,3 mm 2 m/s 644 mmHg 95%
    23:00 +7°C° 0,2 mm 2 m/s 644 mmHg 95%

    26 Iulie, Miercuri

    Timp Temperatura Precipitaţii Vânt Presiune Umiditate
    00:00 +7°C° 0,2 mm 2 m/s 644 mmHg 95%
    01:00 +7°C° 0,2 mm 2 m/s 644 mmHg 95%
    02:00 +7°C° 0,2 mm 2 m/s 644 mmHg 95%
    03:00 +6°C° 0,2 mm 2 m/s 644 mmHg 95%
    04:00 +6°C° 0,2 mm 2 m/s 644 mmHg 95%
    05:00 +7°C° 0 mm 2 m/s 644 mmHg 93%
    06:00 +8°C° 0 mm 2 m/s 644 mmHg 92%
    07:00 +8°C° 0 mm 2 m/s 644 mmHg 91%
    08:00 +10°C° 0 mm 2 m/s 645 mmHg 83%
    09:00 +13°C° 0 mm 2 m/s 645 mmHg 75%
    10:00 +14°C° 0 mm 2 m/s 646 mmHg 67%
    11:00 +15°C° 0 mm 2 m/s 646 mmHg 62%
    12:00 +16°C° 0 mm 3 m/s 646 mmHg 57%
    13:00 +18°C° 0 mm 3 m/s 646 mmHg 53%
    14:00 +18°C° 0 mm 2 m/s 646 mmHg 52%
    15:00 +18°C° 0 mm 2 m/s 646 mmHg 51%
    16:00 +18°C° 0 mm 2 m/s 646 mmHg 50%
    17:00 +17°C° 0 mm 2 m/s 646 mmHg 58%
    18:00 +16°C° 0 mm 1 m/s 646 mmHg 65%
    19:00 +15°C° 0 mm 1 m/s 646 mmHg 73%
    20:00 +13°C° 0 mm 1 m/s 646 mmHg 76%
    21:00 +11°C° 0 mm 1 m/s 646 mmHg 80%
    22:00 +9°C° 0 mm 2 m/s 646 mmHg 83%
    23:00 +9°C° 0 mm 2 m/s 646 mmHg 82%
    Arată mai mult